Helicity
30 8 -34 -33 0 24 34 48 57 89 79 51 40 44 46 71 75 47 87 107 145 96
43 27 17 -48 -6 7 -21 11 54 56 54 63 63 74 61 39 54 78 93 82 79 61
38 33 33 16 -54 -30 -38 -12 45 64 105 114 126 166 175 190 161 159 190 37 36 107
48 40 39 33 20 -42 -20 -11 24 96 151 210 170 222 283 290 230 105 108 133 169 182
59 47 43 33 25 6 4 -4 -29 -6 160 238 260 295 309 374 309 227 110 133 157 286
59 55 42 36 26 26 21 16 -6 -21 52 179 300 342 284 322 314 231 181 199 110 236
34 24 33 37 48 28 38 40 24 -7 8 21 184 271 293 278 267 257 269 214 199 165
11 -5 14 24 34 38 46 50 39 44 47 36 29 116 164 328 366 362 326 313 267 296
58 50 47 42 29 39 34 54 72 81 69 51 52 17 31 38 89 208 378 400 369 421
61 60 56 48 43 40 44 29 51 76 81 77 80 113 101 83 67 74 123 187 232 234
58 60 52 45 45 40 29 39 38 50 61 75 99 131 142 77 73 87 101 123 132 124
57 53 48 43 37 26 19 18 25 39 69 79 94 146 125 60 41 59 97 105 142 146
50 51 39 29 16 6 -1 -3 -10 1 16 67 69 136 150 98 37 54 63 83 110 163
40 26 22 17 8 4 -6 -23 -19 -11 -12 3 21 38 100 110 66 59 54 53 70 96
Wind_Speed
75 78 85 90 90 86 85 84 86 85 84 82 81 82 80 84 76 79 83 91 88 92
71 74 78 89 86 85 89 85 85 84 82 79 79 79 77 72 72 73 80 78 86 85
68 71 74 78 91 91 90 90 86 82 79 78 77 73 68 55 52 48 53 58 56 67
69 71 73 75 81 91 91 92 90 80 81 80 77 70 62 52 42 39 38 40 46 46
68 69 72 76 78 84 90 90 91 85 81 80 72 65 60 50 36 31 31 37 37 38
65 68 69 73 76 80 85 89 90 84 82 82 70 59 56 44 32 29 26 25 28 31
58 62 63 67 72 77 79 85 86 82 85 83 73 60 44 43 34 32 31 30 32 34
53 55 61 62 66 71 76 77 82 80 84 76 70 60 56 43 38 37 34 35 34 36
55 57 59 61 63 66 69 72 72 79 79 70 70 68 61 54 46 42 41 38 37 37
54 56 58 58 60 62 65 67 68 67 71 70 69 65 65 60 52 49 49 45 41 39
51 53 55 56 57 57 58 60 61 63 60 59 62 59 51 49 51 54 53 55 54 50
50 50 52 54 55 54 54 55 56 59 62 61 60 64 55 46 46 48 53 55 57 59
47 49 50 52 52 52 52 52 52 54 56 59 59 65 67 62 54 52 49 45 45 48
44 44 46 49 50 51 51 51 52 51 53 57 60 59 63 63 58 56 55 51 54 56
Wind_Direction
355 360 356 354 355 354 342 335 329 320 318 313 310 305 297 286 279 272 270 265 261 261
1 5 8 356 5 1 346 337 336 335 327 328 321 311 303 292 280 272 269 267 264 261
4 7 11 12 359 3 355 353 350 341 337 339 332 327 319 307 299 287 279 275 275 269
3 8 10 13 14 4 7 6 4 349 351 349 351 342 337 323 304 292 288 287 283 276
3 9 11 13 16 15 14 16 12 3 358 356 349 342 344 336 319 302 295 296 295 290
6 9 13 14 15 16 16 17 11 5 5 9 354 347 354 345 335 338 310 320 319 311
11 11 14 15 16 15 15 17 16 8 12 13 4 356 347 353 356 343 345 337 334 328
11 11 9 12 12 13 13 9 15 14 17 9 6 1 1 357 354 352 350 349 341 339
6 7 9 5 6 6 11 7 4 14 17 6 9 8 7 7 8 7 2 353 348 343
5 6 5 1 2 3 4 7 4 2 6 8 6 2 10 10 10 10 9 4 357 351
5 5 4 2 359 357 357 359 359 0 357 0 2 359 356 2 7 9 9 9 5 1
4 4 3 360 354 352 351 352 355 358 360 359 358 0 357 353 358 1 5 6 7 7
6 5 1 355 352 351 349 349 351 352 355 357 356 358 1 2 357 356 354 351 352 354
5 6 2 357 353 354 350 346 347 348 353 356 356 352 355 357 355 354 354 348 351 352